Location: Davayat
(45.9471°N, 3.1105°E)
Time: 17:46:57
(UTC+00:00)

Cosmos 1869 Rocket - Pass Details

Date: 01 December 2020
Orbit: 604 x 634 km, 82.5° (Epoch: 17 January)

Event Time Altitude Azimuth Distance (km) Brightness Sun altitude
Rises 18:11:13 0° 353° (N) 2,943 7.0 -21.4°
Reaches altitude 10° 18:13:29 10° 355° (N) 2,029 6.1 -21.8°
Enters shadow 18:17:57 70° 76° (ENE) 677 3.4 -22.6°
Exits shadow 18:22:41 - 165° (SSE) 2,110 6.2 -23.4°
Sets 18:24:38 0° 167° (SSE) 2,900 7.0 -23.7°
